Погода в Кирпичном

Россия / Санкт-Петербург и Ленинградская область     60˚28′07″N   29˚22′00″E
темп.,
°C
ветер,
м/с
пор.,
м/с
влажн.,
%
обл.,
%
осадки,
мм/ч
давл.,
гПа
погр.,
м
17 января, вс
вс1700:00−15˚зсз12960 0.0 101820
03:00−13˚з239822 0.0 101773
06:00−13˚з259665 0.0 1016114
09:00−11˚з259676 0.1 1016173
12:00−10˚з259396 0.0 1016196
15:00−8˚з359398 0.1 1016240
18:00−8˚з249798 0.3 1015127
21:00−7˚з249799 0.6 1016128
18 января, пн
пн1800:00−7˚з249799 0.1 1015113
03:00−8˚зсз229793 0.2 101555
06:00−9˚зсз229773 0.0 101521
09:00−10˚з129756 0.0 101521
12:00−8˚ююз12950 0.0 101649
15:00−6˚ююз249728 0.0 1015137
18:00−7˚ююз239883 0.1 101565
21:00−4˚ююз369592 0.1 1015237
19 января, вт
вт1900:00−5˚ююз3696100 0.1 1014261
03:00−5˚ююз3795100 0.1 1015255
06:00−5˚ююз3795100 0.1 1013302
09:00−7˚ююз369698 0.1 1014152
12:00−7˚ююз3694100 0.1 1013332
15:00−7˚ююз359299 0.1 1013373
18:00−9˚ююз3694100 0.1 1013324
21:00−9˚ююз3594100 0.1 1013262
20 января, ср
ср2000:00−9˚ю2494100 0.1 1013138
03:00−11˚ю359699 0.1 1014137
06:00−12˚ю259795 0.0 1013117
09:00−13˚ююв259259 0.0 1013131
12:00−11˚ююв37830 0.0 1013252
15:00−10˚юв38840 0.0 1012289
18:00−11˚юв4119017 0.0 1010297
21:00−11˚юв4108958 0.0 1008344
21 января, чт
чт2100:00−10˚юв51292100 0.2 1004353
03:00−11˚юв4109099 0.0 1009275
06:00−11˚вюв4892100 0.1 1007328
09:00−10˚вюв4993100 0.9 1006394
12:00−9˚вюв4992100 0.7 1005421
15:00−8˚вюв51093100 1.9 1004440
18:00−8˚вюв51094100 2.3 1003473
21:00−8˚вюв51094100 5.8 1002444